IUS R/B(2), 25869

Orbit data source: Space-Track

IUS R/B(2), 25869 is space debris in HEO originally from a launch on Fri, 23 Jul 1999 UTC launched from the Air Force Eastern Test Range (AFETR). Debris objects in space refer to the collection of defunct objects orbiting the Earth. Examples of debris include non-operational satellites, rocket bodies, and fragments generated from explosions, collisions, or faulty payload assembly.

Loading next visibility...
IUS R/B(2) details
Identifier
25869, 1999-040D
Orbit
HEO
Last TLE update18 hours ago
Origin
Flag of USGSFC (US)
ManufacturerPW CSD
MissionSpacecraft
Bus & MotorORBUS 6, ORBUS 6
Mass1,079 kg wet, 1,079 kg dry
Launch date (UTC)
1999-07-23 (25 years ago)
Launch vehicleUnknown
Launch site
Air Force Eastern Test Range (AFETR)
Object type
Payload
Rocket body
Debris
Shape & HBRCyl, 2.9 m
Radar Cross Section8.086 m², Large (>1 m²)

Expand to show TLE details & history

TLE from 18 hours ago
0 IUS R/B(2)
1 25869U 99040D   24360.70488796  .00000034  00000-0  00000+0 0  9992
2 25869  30.9143 222.3937 7960241 332.9019   2.3087  0.97235595 90291
Epoch: 2024-12-25T16:55Z
Definitive object data (Epoch: 2024-12-25T16:55:02.319Z)
Latitude0.00038°
Longitude-125.90506°
Altitude2,905.851 km
Speed8.752 km/s
True Right ascension14h 50m 11s
True Declination0° 00' 01"
Sunlit
Object was in daylight at TLE epoch
Visualization TLE readout
Latitude5.49858°
Longitude44.7463°
Altitude60,545.374 km
Speed1.628 km/s
Apparent Right ascension01h 57m 56s
Apparent Declination1° 56' 47"
Sunlit
Object is in daylight
Visualization observer readout
Local Sidereal Time09:50:51
Azimuth290.509° WNW
Elevation-19.924°
Doppler factor1
Orbital elements
Apogee altitude70,924.127 km
Perigee altitude2,401.143 km
Semi-major axis43,040.772 km
Eccentricity0.7960241
Inclination30.9143°
RAAN222.3937°
Arg. of periapsis332.9019°
True anomaly32.0343°
Mean anomaly2.3087°
Eccentric anomaly11.05155°
Mean motion0.24307 °/min
BSTARUnknown
Orbital period1481.08 mins
Loading maneuver chart data...
Loading historical data...
Loading historical data...
Loading historical data...
Loading historical data...
Loading historical data...
Loading historical data...
Loading historical data...

IUS R/B(2) Visibility forecast

Observer location: undefined°, undefined

Span
Click to sort rows by Start time (UTC) header in descending order
Start Az.
Max El. time (UTC)
Max El. Az.
Max El.
End time (UTC)
End Az.
826 mins2024-12-26 17:40:39.936Z216.072° SW2024-12-27 00:43:39.936Z172.296° S42.838°2024-12-27 07:26:39.936Z272.297° WNW
|